Regional Weather Roundup
Issued by NWS Upton, NY

Current Version | Previous Version | Text Only | Print | Product List | Glossary On
Versions: 1 2 3 4 5 6 7 8 9 10 11 12 13 14 15 16 17 18 19 20 21 22 23 24 25 26 27
000
ASUS41 KOKX 252008
RWROKX

REGIONAL WEATHER ROUNDUP
NATIONAL WEATHER SERVICE NEW YORK NY
300 PM EST SAT FEB 25 2017

NOTE: "FAIR" INDICATES FEW OR NO CLOUDS BELOW 12,000 FEET WITH NO
SIGNIFICANT WEATHER AND/OR OBSTRUCTIONS TO VISIBILITY.

NYZ071-072-176-178-NJZ106-104-252100-
NEW YORK CITY METRO AREA

CITY           SKY/WX    TMP DP  RH WIND       PRES   REMARKS
Central Park   CLOUDY    62  55  77 S10G17    29.57F
Wall St Helipt NOT AVBL
LaGuardia APRT CLOUDY    65  55  70 S24       29.55F
Kennedy INTL   CLOUDY    57  53  86 S17       29.58F
Breezy Point     N/A     46 N/A N/A SE6         N/A
Newark/Liberty PTSUNNY   66  55  67 SE15G24   29.53F
Teterboro      MOSUNNY   67  56  67 SE17G31   29.52F
$$

NYZ177-179-078>081-252100-
LONG ISLAND NEW YORK

CITY           SKY/WX    TMP DP  RH WIND       PRES   REMARKS
Jones Beach      N/A     52 N/A N/A S14G20      N/A
Matinecock PT    N/A     64 N/A N/A S8G15       N/A
Farmingdale    PTSUNNY   61  55  81 S17       29.58F
MacArthur/ISP  PTSUNNY   61  56  83 S13       29.58F
Shirley        PTSUNNY   60  56  86 SE14      29.61F
Westhampton    MOSUNNY   59  53  80 SE12G21   29.62F
Southampton    NOT AVBL
Bridgehampton  NOT AVBL
East Hampton   CLOUDY    55  51  86 SE10G16   29.61F
Montauk          N/A     56  53  90 SE9G18    29.63F
$$

NYZ052-065-067-252100-
HUDSON VALLEY

CITY           SKY/WX    TMP DP  RH WIND       PRES   REMARKS
White Plains   PTSUNNY   63  55  75 SE12      29.55F
Newburgh       PTSUNNY   64  57  77 S17G29    29.52F
Montgomery     CLOUDY    67  54  63 S13G28    29.46F
Poughkeepsie   CLOUDY    65  54  67 S14G22    29.49F
Albany         PTSUNNY   68  50  52 S23G37    29.46F
$$

NJZ001-105-106-008-010-013-015-019>022-104-252100-
NEW JERSEY

CITY           SKY/WX    TMP DP  RH WIND       PRES   REMARKS
Newark/Liberty PTSUNNY   66  55  67 SE15G24   29.53F
Teterboro      MOSUNNY   67  56  67 SE17G31   29.52F
Caldwell       MOSUNNY   66  55  67 SE16G26   29.51F
Somerville     PTSUNNY   72  53  51 SE12G23   29.45F
Linden         NOT AVBL
Sussex         PTSUNNY   66  55  67 SE16G26   29.46F
Andover          N/A     70  53  54 S14G24    29.44F
Trenton        MOSUNNY   72  55  55 S18G26    29.47F
Millville      CLOUDY    68  59  73 SE16G28   29.51F
Atlantic City  PTSUNNY   60  55  83 S13G24    29.56F
Wrightstown    MOSUNNY   69  57  65 S15G23    29.49F
Toms River     PTSUNNY   66  58  75 S13       29.56F
Belmar         MOSUNNY   65  56  72 S15G24    29.57F
$$

PAZ047>061-062-071-252100-
EASTERN PENNSYLVANIA

CITY           SKY/WX    TMP DP  RH WIND       PRES   REMARKS
Philadelphia   MOSUNNY   72  55  55 S18G24    29.47F
Allentown      MOSUNNY   74  55  51 S20G28    29.40F
Scranton       TSTM      61  58  90 W14G24    29.38F VSB 1
$$

CTZ002-004>006-009-010-012-RIZ004-006-007-MAZ004-011-015-252100-
SOUTHERN NEW ENGLAND
 IN CT

CITY           SKY/WX    TMP DP  RH WIND       PRES   REMARKS
Bradley INTL   PTSUNNY   67  56  67 SE18      29.57F
Hartford       CLOUDY    66  56  70 S16G26    29.58F
Danbury        CLOUDY    62  55  77 SE6G18    29.58F
Wtrbury/Oxford PTSUNNY   63  54  72 S15G26    29.59F
Bridgeport     CLOUDY    53  47  79 E7        29.58F
Meriden        CLOUDY    65  55  70 S14G21    29.58F
New Haven      CLOUDY    57  51  80 SE10      29.59F
Chester        MOCLDY    63  57  82 SE13G18   29.61F
Groton         CLOUDY    55  50  83 SE9       29.61F
Wilimantic     PTSUNNY   66  57  72 S10G20    29.61F

 IN RI

CITY           SKY/WX    TMP DP  RH WIND       PRES   REMARKS
Providence     PTSUNNY   58  53  84 SE12      29.66F
Block Island   FOG       54  53  97 SE20      29.64F VSB 1/2
Westerly       PTSUNNY   55  49  80 SE13G22   29.64F
 IN MA

CITY           SKY/WX    TMP DP  RH WIND       PRES   REMARKS
Boston         CLOUDY    65  54  67 S12       29.64F
Worcester      CLOUDY    62  52  69 S17G24    29.62F
Westfield      CLOUDY    66  56  70 SE16G25   29.56F
Provincetown   SUNNY     61  54  77 SE15      29.68
Nantucket      CLOUDY    53  49  86 SE13      29.68F
$$

ANZ330-335-338-340-345-350-353-355-252100-
COASTAL MARINE OBSERVATIONS


STATION/POSITION TIME  SKY/WX   TEMP    WIND        PRES    VSBY  WAVE
                                AIR SEA DIR/SP/G                  HT/PER
                 (UTC)          (F)     (DEG/KT/KT) (MB)    (MI)  (FT/S)
NY HARB ENTRANCE 1850            49 45  160/ 14/ 14 1002.2          4/ 9
20 S FIRE ISLAND 1850            49 45  140/ 12/ 12 1002.5          4/ 9
GREAT SOUTH BAY  NOT AVBL
23 SSW MONTAUK P 1850            48 44              1004.9          4/ 9
15 E BARNEGAT LI 1930               45                N/A           6/10
HUDSON CANYON    1850               49              1003.8          6/11
KINGS POINT      1942            58 42              1001.0
EXECUTION ROCKS  NOT AVBL
CENTRAL LI SOUND 1930            50     130/ 14/ 16   N/A           1
EASTERN LI SOUND NOT AVBL
ROBBINS REEF     1948            57     150/ 22/ 24 1000.3
$$


>>>>>>>>>>>>>>>>>>>>>>>>>>>> KEY <<<<<<<<<<<<<<<<<<<<<<<<<<<
>                                                          <
>     SKY/WX - Sky Condition/Present Weather               <
>     TMP    - Temperature in Fahrenheit                   <
>     DP     - Dew Point in Fahrenheit                     <
>     RH     - Relative Humidity in Percent                <
>     WIND   - Direction (from) and Speed in MPH           <
>     PRES   - Mean Sea Level Pressure (inches of Hg)      <
>     WCI    - Wind Chill Index                            <
>     VSB    - VISIBILITY IN MILES                         <
>     HX     - HEAT INDEX                                  <
>     TC     - TEMPERATURE IN CELSIUS                      <
>     VRB    - VARIABLE WIND DIRECTION                     <
>                                                          <
>>>>>>>>>>>>>>>>>>>>>>>>>>>> KEY <<<<<<<<<<<<<<<<<<<<<<<<<<<




USA.gov is the U.S. government's official web portal to all federal, state and local government web resources and services.